Simultaneous Nadir Overpasses (SNOs) Predictions

Prediction of SNOs between GOES-15 and LANDSAT-8 Satellite Orbit:

Table of predicted SNOs for the next 14.0 days since TLE Epoch: 12/14/2024
Index Date Time (GOES-15) GOES-15 Lat,Lon LANDSAT-8 Lat,Lon Distance(km) Time Diff (sec)
1 12/15/2024 06:05:18 -0.10, 61.40 -0.25, 62.06 76.08 80
2 12/17/2024 05:53:07 -0.09, 61.39 -0.86, 65.02 412.71 80
3 12/17/2024 18:14:31 0.08, 61.43 -0.26, 59.84 181.54 80
4 12/19/2024 17:59:40 0.08, 61.43 0.37, 62.79 154.98 80
5 12/20/2024 06:20:55 -0.07, 61.40 0.76, 57.64 427.85 80
6 12/21/2024 17:47:28 0.08, 61.42 0.97, 65.75 491.82 80
7 12/22/2024 06:08:44 -0.07, 61.39 0.09, 60.59 90.70 80
8 12/24/2024 05:59:12 -0.07, 61.39 -0.54, 63.55 246.27 80
9 12/24/2024 18:20:35 0.06, 61.40 -0.62, 58.37 345.57 80
10 12/26/2024 18:08:23 0.06, 61.41 0.05, 61.32 9.40 80
